Time,TemperatureF,DewpointF,PressureIn,WindDirection,WindDirectionDegrees,WindSpeedMPH,WindSpeedGustMPH,Humidity,HourlyPrecipIn,Conditions,Clouds,dailyrainin,SoftwareType,DateUTC
2013-01-14 00:02:00,-5.0,-10.0,-100.00,West,273,0.0,1.0,79,-99.99,,,-99.99,,2013-01-14 07:02:00,
2013-01-14 00:12:00,-5.0,-10.0,-100.00,NNW,330,1.0,3.0,79,-99.99,,,-99.99,,2013-01-14 07:12:00,
2013-01-14 00:22:00,-5.0,-10.0,-100.00,NNW,330,1.0,3.0,79,-99.99,,,-99.99,,2013-01-14 07:22:00,
2013-01-14 00:32:00,-5.0,-10.0,-100.00,NNW,330,1.0,3.0,79,-99.99,,,-99.99,,2013-01-14 07:32:00,
2013-01-14 00:42:00,-6.0,-11.0,-100.00,West,264,2.0,3.0,79,-99.99,,,-99.99,,2013-01-14 07:42:00,
2013-01-14 00:52:00,-6.0,-11.0,-100.00,West,264,2.0,3.0,79,-99.99,,,-99.99,,2013-01-14 07:52:00,
2013-01-14 01:02:00,-6.0,-11.0,-100.00,WSW,245,2.0,3.0,79,-99.99,,,-99.99,,2013-01-14 08:02:00,
2013-01-14 01:11:00,-6.0,-11.0,-100.00,West,275,3.0,4.0,79,-99.99,,,-99.99,,2013-01-14 08:11:00,
2013-01-14 01:22:00,-6.0,-11.0,-100.00,West,275,3.0,4.0,79,-99.99,,,-99.99,,2013-01-14 08:22:00,
2013-01-14 01:32:00,-6.0,-11.0,-100.00,West,275,3.0,4.0,79,-99.99,,,-99.99,,2013-01-14 08:32:00,
2013-01-14 01:42:00,-6.0,-11.0,-100.00,NE,42,1.0,3.0,79,-99.99,,,-99.99,,2013-01-14 08:42:00,
2013-01-14 01:53:00,-6.0,-11.0,-100.00,NE,42,1.0,3.0,79,-99.99,,,-99.99,,2013-01-14 08:53:00,
2013-01-14 02:02:00,-6.0,-11.0,-100.00,ESE,114,2.0,3.0,79,-99.99,,,-99.99,,2013-01-14 09:02:00,
2013-01-14 02:12:00,-6.0,-11.0,-100.00,SE,128,1.0,2.0,80,-99.99,,,-99.99,,2013-01-14 09:12:00,
2013-01-14 02:22:00,-6.0,-11.0,-100.00,SE,128,1.0,2.0,80,-99.99,,,-99.99,,2013-01-14 09:22:00,
2013-01-14 02:33:00,-6.0,-11.0,-100.00,SE,128,1.0,2.0,80,-99.99,,,-99.99,,2013-01-14 09:33:00,
2013-01-14 02:42:00,-7.0,-11.0,-100.00,South,172,1.0,2.0,79,-99.99,,,-99.99,,2013-01-14 09:42:00,
2013-01-14 02:53:00,-7.0,-11.0,-100.00,South,172,1.0,2.0,79,-99.99,,,-99.99,,2013-01-14 09:53:00,
2013-01-14 03:02:00,-7.0,-12.0,-100.00,NW,305,0.0,2.0,78,-99.99,,,-99.99,,2013-01-14 10:02:00,
2013-01-14 03:12:00,-7.0,-12.0,-100.00,West,280,2.0,3.0,79,-99.99,,,-99.99,,2013-01-14 10:12:00,
2013-01-14 03:22:00,-7.0,-12.0,-100.00,West,280,2.0,3.0,79,-99.99,,,-99.99,,2013-01-14 10:22:00,
2013-01-14 03:32:00,-7.0,-12.0,-100.00,West,280,2.0,3.0,79,-99.99,,,-99.99,,2013-01-14 10:32:00,
2013-01-14 03:42:00,-7.0,-12.0,-100.00,NE,50,1.0,3.0,78,-99.99,,,-99.99,,2013-01-14 10:42:00,
2013-01-14 03:53:00,-7.0,-12.0,-100.00,NE,50,1.0,3.0,78,-99.99,,,-99.99,,2013-01-14 10:53:00,
2013-01-14 04:02:00,-7.0,-12.0,-100.00,SE,132,2.0,3.0,80,-99.99,,,-99.99,,2013-01-14 11:02:00,
2013-01-14 04:11:00,-7.0,-12.0,-100.00,SE,145,2.0,3.0,81,-99.99,,,-99.99,,2013-01-14 11:11:00,
2013-01-14 04:22:00,-7.0,-12.0,-100.00,SE,145,2.0,3.0,81,-99.99,,,-99.99,,2013-01-14 11:22:00,
2013-01-14 04:32:00,-7.0,-12.0,-100.00,SE,145,2.0,3.0,81,-99.99,,,-99.99,,2013-01-14 11:32:00,
2013-01-14 04:42:00,-6.0,-11.0,-100.00,SE,128,0.0,1.0,79,-99.99,,,-99.99,,2013-01-14 11:42:00,
2013-01-14 04:53:00,-6.0,-11.0,-100.00,North,0,0.0,0.0,79,-99.99,,,-99.99,,2013-01-14 11:53:00,
2013-01-14 05:02:00,-6.0,-11.0,-100.00,North,0,0.0,0.0,79,-99.99,,,-99.99,,2013-01-14 12:02:00,
2013-01-14 05:12:00,-7.0,-11.0,-100.00,SSE,150,0.0,1.0,78,-99.99,,,-99.99,,2013-01-14 12:12:00,
2013-01-14 05:22:00,-7.0,-11.0,-100.00,SSE,150,0.0,1.0,78,-99.99,,,-99.99,,2013-01-14 12:22:00,
2013-01-14 05:33:00,-7.0,-11.0,-100.00,SSE,150,0.0,1.0,78,-99.99,,,-99.99,,2013-01-14 12:33:00,
2013-01-14 05:42:00,-7.0,-12.0,-100.00,West,264,2.0,3.0,78,-99.99,,,-99.99,,2013-01-14 12:42:00,
2013-01-14 05:53:00,-7.0,-12.0,-100.00,West,264,2.0,3.0,78,-99.99,,,-99.99,,2013-01-14 12:53:00,
2013-01-14 06:03:00,-7.0,-11.0,-100.00,West,260,2.0,3.0,79,-99.99,,,-99.99,,2013-01-14 13:03:00,
2013-01-14 06:12:00,-6.0,-11.0,-100.00,West,272,2.0,3.0,78,-99.99,,,-99.99,,2013-01-14 13:12:00,
2013-01-14 06:22:00,-6.0,-11.0,-100.00,West,272,2.0,3.0,78,-99.99,,,-99.99,,2013-01-14 13:22:00,
2013-01-14 06:33:00,-6.0,-11.0,-100.00,West,272,2.0,3.0,78,-99.99,,,-99.99,,2013-01-14 13:33:00,
2013-01-14 06:43:00,-6.0,-11.0,-100.00,WSW,255,2.0,5.0,78,-99.99,,,-99.99,,2013-01-14 13:43:00,
2013-01-14 06:53:00,-6.0,-11.0,-100.00,WSW,255,2.0,5.0,78,-99.99,,,-99.99,,2013-01-14 13:53:00,
2013-01-14 07:02:00,-6.0,-11.0,-100.00,West,264,4.0,7.0,79,-99.99,,,-99.99,,2013-01-14 14:02:00,
2013-01-14 07:12:00,-5.0,-10.0,-100.00,West,273,3.0,6.0,78,-99.99,,,-99.99,,2013-01-14 14:12:00,
2013-01-14 07:22:00,-5.0,-10.0,-100.00,West,273,3.0,6.0,78,-99.99,,,-99.99,,2013-01-14 14:22:00,
2013-01-14 07:32:00,-5.0,-10.0,-100.00,West,273,3.0,6.0,78,-99.99,,,-99.99,,2013-01-14 14:32:00,
2013-01-14 07:42:00,-4.0,-9.0,-100.00,West,275,3.0,5.0,77,-99.99,,,-99.99,,2013-01-14 14:42:00,
2013-01-14 07:53:00,-4.0,-9.0,-100.00,West,275,3.0,5.0,77,-99.99,,,-99.99,,2013-01-14 14:53:00,
2013-01-14 08:03:00,-4.0,-9.0,-100.00,West,275,3.0,5.0,77,-99.99,,,-99.99,,2013-01-14 15:03:00,
2013-01-14 08:12:00,-4.0,-9.0,-100.00,WNW,299,2.0,4.0,78,-99.99,,,-99.99,,2013-01-14 15:12:00,
2013-01-14 08:23:00,-4.0,-9.0,-100.00,WNW,299,2.0,4.0,78,-99.99,,,-99.99,,2013-01-14 15:23:00,
2013-01-14 08:33:00,-4.0,-9.0,-100.00,WNW,299,2.0,4.0,78,-99.99,,,-99.99,,2013-01-14 15:33:00,
2013-01-14 08:43:00,-4.0,-9.0,-100.00,WNW,288,3.0,7.0,78,-99.99,,,-99.99,,2013-01-14 15:43:00,
2013-01-14 08:53:00,-4.0,-9.0,-100.00,WNW,288,3.0,7.0,78,-99.99,,,-99.99,,2013-01-14 15:53:00,
2013-01-14 09:02:00,-4.0,-9.0,-100.00,West,276,3.0,6.0,78,-99.99,,,-99.99,,2013-01-14 16:02:00,
2013-01-14 09:12:00,-3.0,-8.0,-100.00,West,269,3.0,6.0,78,-99.99,,,-99.99,,2013-01-14 16:12:00,
2013-01-14 09:23:00,-3.0,-8.0,-100.00,West,269,3.0,6.0,78,-99.99,,,-99.99,,2013-01-14 16:23:00,
2013-01-14 09:33:00,-3.0,-8.0,-100.00,West,269,3.0,6.0,78,-99.99,,,-99.99,,2013-01-14 16:33:00,
2013-01-14 09:42:00,-2.0,-7.0,-100.00,NW,311,2.0,4.0,79,-99.99,,,-99.99,,2013-01-14 16:42:00,
2013-01-14 09:53:00,-2.0,-7.0,-100.00,NW,311,2.0,4.0,79,-99.99,,,-99.99,,2013-01-14 16:53:00,
2013-01-14 10:03:00,-2.0,-7.0,-100.00,NW,311,2.0,4.0,79,-99.99,,,-99.99,,2013-01-14 17:03:00,
2013-01-14 10:12:00,-2.0,-7.0,-100.00,NW,323,1.0,3.0,77,-99.99,,,-99.99,,2013-01-14 17:12:00,
2013-01-14 10:22:00,-2.0,-7.0,-100.00,NW,323,1.0,3.0,77,-99.99,,,-99.99,,2013-01-14 17:22:00,
2013-01-14 10:33:00,-2.0,-7.0,-100.00,NW,323,1.0,3.0,77,-99.99,,,-99.99,,2013-01-14 17:33:00,
2013-01-14 10:42:00,-2.0,-7.0,-100.00,WNW,302,2.0,6.0,77,-99.99,,,-99.99,,2013-01-14 17:42:00,
2013-01-14 10:53:00,-2.0,-7.0,-100.00,WNW,302,2.0,6.0,77,-99.99,,,-99.99,,2013-01-14 17:53:00,
2013-01-14 11:03:00,-2.0,-8.0,-100.00,WNW,289,2.0,6.0,77,-99.99,,,-99.99,,2013-01-14 18:03:00,
2013-01-14 11:12:00,-2.0,-7.0,-100.00,NNW,333,3.0,7.0,77,-99.99,,,-99.99,,2013-01-14 18:12:00,
2013-01-14 11:22:00,-2.0,-7.0,-100.00,NNW,333,3.0,7.0,77,-99.99,,,-99.99,,2013-01-14 18:22:00,
2013-01-14 11:33:00,-2.0,-7.0,-100.00,NNW,333,3.0,7.0,77,-99.99,,,-99.99,,2013-01-14 18:33:00,
2013-01-14 11:42:00,1.0,-5.0,-100.00,North,349,3.0,6.0,76,-99.99,,,-99.99,,2013-01-14 18:42:00,
2013-01-14 11:53:00,1.0,-5.0,-100.00,North,349,3.0,6.0,76,-99.99,,,-99.99,,2013-01-14 18:53:00,
2013-01-14 12:03:00,1.0,-5.0,-100.00,North,355,3.0,6.0,76,-99.99,,,-99.99,,2013-01-14 19:03:00,
2013-01-14 12:12:00,1.0,-5.0,-100.00,NNW,332,3.0,7.0,75,-99.99,,,-99.99,,2013-01-14 19:12:00,
2013-01-14 12:22:00,1.0,-5.0,-100.00,NNW,332,3.0,7.0,75,-99.99,,,-99.99,,2013-01-14 19:22:00,
2013-01-14 12:32:00,1.0,-5.0,-100.00,NNW,332,3.0,7.0,75,-99.99,,,-99.99,,2013-01-14 19:32:00,
2013-01-14 12:42:00,1.0,-5.0,-100.00,North,350,3.0,9.0,75,-99.99,,,-99.99,,2013-01-14 19:42:00,
2013-01-14 12:53:00,1.0,-5.0,-100.00,North,350,3.0,9.0,75,-99.99,,,-99.99,,2013-01-14 19:53:00,
2013-01-14 13:03:00,0.0,-6.0,-100.00,NW,322,3.0,7.0,76,-99.99,,,-99.99,,2013-01-14 20:03:00,
2013-01-14 13:12:00,-1.0,-6.0,-100.00,NW,321,4.0,7.0,76,-99.99,,,-99.99,,2013-01-14 20:12:00,
2013-01-14 13:22:00,-1.0,-6.0,-100.00,NW,321,4.0,7.0,76,-99.99,,,-99.99,,2013-01-14 20:22:00,
2013-01-14 13:33:00,-1.0,-6.0,-100.00,NW,321,4.0,7.0,76,-99.99,,,-99.99,,2013-01-14 20:33:00,
2013-01-14 13:42:00,-1.0,-7.0,-100.00,NNW,344,4.0,7.0,77,-99.99,,,-99.99,,2013-01-14 20:42:00,
2013-01-14 13:53:00,-1.0,-7.0,-100.00,NNW,344,4.0,7.0,77,-99.99,,,-99.99,,2013-01-14 20:53:00,
2013-01-14 14:02:00,-1.0,-6.0,-100.00,North,352,3.0,5.0,78,-99.99,,,-99.99,,2013-01-14 21:02:00,
2013-01-14 14:12:00,-1.0,-6.0,-100.00,North,3,4.0,6.0,78,-99.99,,,-99.99,,2013-01-14 21:12:00,
2013-01-14 14:22:00,-1.0,-6.0,-100.00,North,3,4.0,6.0,78,-99.99,,,-99.99,,2013-01-14 21:22:00,
2013-01-14 14:32:00,-1.0,-6.0,-100.00,North,3,4.0,6.0,78,-99.99,,,-99.99,,2013-01-14 21:32:00,
2013-01-14 14:42:00,-1.0,-6.0,-100.00,North,8,2.0,5.0,79,-99.99,,,-99.99,,2013-01-14 21:42:00,
2013-01-14 14:53:00,-1.0,-6.0,-100.00,North,8,2.0,5.0,79,-99.99,,,-99.99,,2013-01-14 21:53:00,
2013-01-14 15:02:00,-1.0,-6.0,-100.00,NNW,342,2.0,3.0,79,-99.99,,,-99.99,,2013-01-14 22:02:00,
2013-01-14 15:12:00,-1.0,-6.0,-100.00,North,354,4.0,9.0,78,-99.99,,,-99.99,,2013-01-14 22:12:00,
2013-01-14 15:23:00,-1.0,-6.0,-100.00,North,354,4.0,9.0,78,-99.99,,,-99.99,,2013-01-14 22:23:00,
2013-01-14 15:32:00,-1.0,-6.0,-100.00,North,354,4.0,9.0,78,-99.99,,,-99.99,,2013-01-14 22:32:00,
2013-01-14 15:42:00,-2.0,-7.0,-100.00,North,351,4.0,6.0,78,-99.99,,,-99.99,,2013-01-14 22:42:00,
2013-01-14 15:52:00,-2.0,-7.0,-100.00,North,351,4.0,6.0,78,-99.99,,,-99.99,,2013-01-14 22:52:00,
2013-01-14 16:02:00,-2.0,-7.0,-100.00,North,351,4.0,6.0,78,-99.99,,,-99.99,,2013-01-14 23:02:00,
2013-01-14 16:12:00,-2.0,-7.0,-100.00,North,357,4.0,6.0,78,-99.99,,,-99.99,,2013-01-14 23:12:00,
2013-01-14 16:23:00,-2.0,-7.0,-100.00,North,357,4.0,6.0,78,-99.99,,,-99.99,,2013-01-14 23:23:00,
2013-01-14 16:33:00,-2.0,-7.0,-100.00,North,357,4.0,6.0,78,-99.99,,,-99.99,,2013-01-14 23:33:00,
2013-01-14 16:42:00,-3.0,-7.0,-100.00,ESE,120,2.0,4.0,78,-99.99,,,-99.99,,2013-01-14 23:42:00,
2013-01-14 16:53:00,-3.0,-7.0,-100.00,ESE,120,2.0,4.0,78,-99.99,,,-99.99,,2013-01-14 23:53:00,
2013-01-14 17:02:00,-3.0,-8.0,-100.00,SE,144,2.0,3.0,78,-99.99,,,-99.99,,2013-01-15 00:02:00,
2013-01-14 17:12:00,-3.0,-8.0,-100.00,South,175,2.0,3.0,78,-99.99,,,-99.99,,2013-01-15 00:12:00,
2013-01-14 17:22:00,-3.0,-8.0,-100.00,South,175,2.0,3.0,78,-99.99,,,-99.99,,2013-01-15 00:22:00,
2013-01-14 17:32:00,-3.0,-8.0,-100.00,South,175,2.0,3.0,78,-99.99,,,-99.99,,2013-01-15 00:32:00,
2013-01-14 17:43:00,-3.0,-8.0,-100.00,SSE,149,2.0,3.0,79,-99.99,,,-99.99,,2013-01-15 00:43:00,
2013-01-14 17:53:00,-3.0,-8.0,-100.00,SSE,149,2.0,3.0,79,-99.99,,,-99.99,,2013-01-15 00:53:00,
2013-01-14 18:02:00,-3.0,-8.0,-100.00,SSE,149,2.0,3.0,79,-99.99,,,-99.99,,2013-01-15 01:02:00,
2013-01-14 18:12:00,-4.0,-8.0,-100.00,SSE,161,0.0,2.0,79,-99.99,,,-99.99,,2013-01-15 01:12:00,
2013-01-14 18:22:00,-4.0,-8.0,-100.00,SSE,161,0.0,2.0,79,-99.99,,,-99.99,,2013-01-15 01:22:00,
2013-01-14 18:32:00,-4.0,-8.0,-100.00,SSE,161,0.0,2.0,79,-99.99,,,-99.99,,2013-01-15 01:32:00,
2013-01-14 18:42:00,-4.0,-8.0,-100.00,NW,306,0.0,1.0,80,-99.99,,,-99.99,,2013-01-15 01:42:00,
2013-01-14 18:52:00,-4.0,-8.0,-100.00,NW,306,0.0,1.0,80,-99.99,,,-99.99,,2013-01-15 01:52:00,
2013-01-14 19:02:00,-3.0,-8.0,-100.00,West,274,0.0,2.0,80,-99.99,,,-99.99,,2013-01-15 02:02:00,
2013-01-14 19:12:00,-3.0,-8.0,-100.00,ESE,108,1.0,2.0,79,-99.99,,,-99.99,,2013-01-15 02:12:00,
2013-01-14 19:22:00,-3.0,-8.0,-100.00,ESE,108,1.0,2.0,79,-99.99,,,-99.99,,2013-01-15 02:22:00,
2013-01-14 19:32:00,-3.0,-8.0,-100.00,ESE,108,1.0,2.0,79,-99.99,,,-99.99,,2013-01-15 02:32:00,
2013-01-14 19:42:00,-3.0,-8.0,-100.00,ESE,116,3.0,4.0,78,-99.99,,,-99.99,,2013-01-15 02:42:00,
2013-01-14 19:53:00,-3.0,-8.0,-100.00,ESE,116,3.0,4.0,78,-99.99,,,-99.99,,2013-01-15 02:53:00,
2013-01-14 20:02:00,-3.0,-8.0,-100.00,ESE,116,3.0,4.0,78,-99.99,,,-99.99,,2013-01-15 03:02:00,
2013-01-14 20:12:00,-2.0,-7.0,-100.00,East,91,1.0,2.0,79,-99.99,,,-99.99,,2013-01-15 03:12:00,
2013-01-14 20:22:00,-2.0,-7.0,-100.00,East,91,1.0,2.0,79,-99.99,,,-99.99,,2013-01-15 03:22:00,
2013-01-14 20:33:00,-2.0,-7.0,-100.00,East,91,1.0,2.0,79,-99.99,,,-99.99,,2013-01-15 03:33:00,
2013-01-14 20:42:00,-2.0,-7.0,-100.00,ESE,102,2.0,3.0,79,-99.99,,,-99.99,,2013-01-15 03:42:00,
2013-01-14 20:52:00,-2.0,-7.0,-100.00,ESE,102,2.0,3.0,79,-99.99,,,-99.99,,2013-01-15 03:52:00,
2013-01-14 21:02:00,-2.0,-7.0,-100.00,ESE,102,2.0,3.0,79,-99.99,,,-99.99,,2013-01-15 04:02:00,
2013-01-14 21:12:00,-3.0,-8.0,-100.00,ESE,115,2.0,3.0,79,-99.99,,,-99.99,,2013-01-15 04:12:00,
2013-01-14 21:22:00,-3.0,-8.0,-100.00,ESE,115,2.0,3.0,79,-99.99,,,-99.99,,2013-01-15 04:22:00,
2013-01-14 21:32:00,-3.0,-8.0,-100.00,ESE,115,2.0,3.0,79,-99.99,,,-99.99,,2013-01-15 04:32:00,
2013-01-14 21:42:00,-3.0,-8.0,-100.00,WSW,255,2.0,4.0,80,-99.99,,,-99.99,,2013-01-15 04:42:00,
2013-01-14 21:52:00,-3.0,-8.0,-100.00,WSW,255,2.0,4.0,80,-99.99,,,-99.99,,2013-01-15 04:52:00,
2013-01-14 22:03:00,-3.0,-8.0,-100.00,SW,218,1.0,4.0,80,-99.99,,,-99.99,,2013-01-15 05:03:00,
2013-01-14 22:12:00,-3.0,-8.0,-100.00,ESE,123,1.0,5.0,80,-99.99,,,-99.99,,2013-01-15 05:12:00,
2013-01-14 22:22:00,-3.0,-8.0,-100.00,ESE,123,1.0,5.0,80,-99.99,,,-99.99,,2013-01-15 05:22:00,
2013-01-14 22:33:00,-3.0,-8.0,-100.00,ESE,123,1.0,5.0,80,-99.99,,,-99.99,,2013-01-15 05:33:00,
2013-01-14 22:42:00,-4.0,-8.0,-100.00,SE,146,2.0,5.0,80,-99.99,,,-99.99,,2013-01-15 05:42:00,
2013-01-14 22:52:00,-4.0,-8.0,-100.00,SE,146,2.0,5.0,80,-99.99,,,-99.99,,2013-01-15 05:52:00,
2013-01-14 23:02:00,-2.0,-7.0,-100.00,NW,311,3.0,8.0,82,-99.99,,,-99.99,,2013-01-15 06:02:00,
2013-01-14 23:12:00,-1.0,-5.0,-100.00,WNW,299,3.0,8.0,81,-99.99,,,-99.99,,2013-01-15 06:12:00,
2013-01-14 23:22:00,-1.0,-5.0,-100.00,WNW,299,3.0,8.0,81,-99.99,,,-99.99,,2013-01-15 06:22:00,
2013-01-14 23:32:00,-1.0,-5.0,-100.00,WNW,299,3.0,8.0,81,-99.99,,,-99.99,,2013-01-15 06:32:00,
2013-01-14 23:42:00,-2.0,-7.0,-100.00,East,92,1.0,3.0,79,-99.99,,,-99.99,,2013-01-15 06:42:00,
2013-01-14 23:53:00,-2.0,-7.0,-100.00,East,92,1.0,3.0,79,-99.99,,,-99.99,,2013-01-15 06:53:00,